Regional Weather Roundup
Issued by NWS

Home | Current Version | Previous Version | Text Only | Print | Product List | Glossary On
Versions: 1 2 3 4 5 6 7 8 9 10 11 12 13 14 15 16 17 18 19 20 21 22 23 24 25 26 27 28 29 30 31 32 33 34 35 36 37 38 39 40 41 42 43 44 45 46 47 48 49 50
000
ASUS42 KTBW 011216
RWRFL
FLORIDA REGIONAL WEATHER ROUNDUP
NATIONAL WEATHER SERVICE TAMPA BAY RUSKIN FL
800 AM EDT WED JUL 01 2015

NOTE: "FAIR" INDICATES FEW OR NO CLOUDS BELOW 12,000 FEET WITH NO
SIGNIFICANT WEATHER AND/OR OBSTRUCTIONS TO VISIBILITY.


FLZ001>010-012>015-112-114-115-011300-
PANHANDLE FLORIDA

CITY           SKY/WX    TMP DP  RH WIND       PRES   REMARKS
PENSACOLA      MOSUNNY   75  72  90 N3        30.07R
PENSACOLA NAS  PTSUNNY   77  73  87 NW5       30.08R
MILTON NAS     PTSUNNY   74  71  91 CALM      30.07
CRESTVIEW      MOSUNNY   71  70  96 CALM      30.09S
DUKE FIELD     FAIR      73  71  93 CALM      30.07S
VALPARAISO     PTSUNNY   75  73  94 CALM      30.07S
MARY ESTHER    MOSUNNY   76  73  89 CALM      30.06R
TRI COUNTY     FAIR      70  69  97 CALM      30.10S
PANAMA CITY    FAIR      76  74  93 CALM      30.09R
TYNDALL AFB    MOSUNNY   77  75  93 NE5       30.10R
APALACHICOLA   LGT RAIN  82  74  76 NW3       30.11S

STATION/POSITION SKY/WX   TEMP    WIND        PRES    WAVE   SWELL
                          AIR SEA DIR/SP/G            HT/PER HT/PER
                          (F)     (DEG/KT/KT) (MB)    (FT/S) (FT/S)
30.1N   87.6W              81 83  270/  6/  8 1018.1R   2/ 4   2/ 4
29.2N   88.2W              84 84  260/  6/  8 1019.5R   2/ 6   2/ 6
28.8N   86.0W              80 83  240/  4/  4 1019.8F   2/ 4   2/ 4
PANAMA CITY BEAC           80 80  310/  5/  6 1018.6R
CAPE SAN BLAS    NOT AVBL
TOWER C                    82     250/  9/ 10 1019.7F
28.5N   84.5W              84 85  270/  8/ 10 1020.1R   2/ 5   2/ 5

$$
FLZ011-016>038-118-127-128-134-139-239-011300-
NORTH FLORIDA

CITY           SKY/WX    TMP DP  RH WIND       PRES   REMARKS
MARIANNA       SUNNY     73  73 100 S6        30.10R
TALLAHASSEE    PTSUNNY   76  73  91 SW5       30.12R
PERRY            N/A     71  71 100 CALM      30.13R
CROSS CITY       N/A     76  72  87 CALM      30.12S
LAKE CITY      FAIR      72  70  94 CALM      30.13S
GAINESVILLE    SUNNY     76  73  91 W3        30.13R
MAYPORT NAS    MOSUNNY   77  70  79 W8        30.12R
JACKSONVILLE   PTSUNNY   71  68  90 SW6       30.11R
JAX NAS        MOSUNNY   77  69  76 W8        30.13R
JAX CRAIG      SUNNY     77  71  82 W8        30.12R
JAX CECIL      SUNNY     72  70  94 VRB6      30.12S
FERNANDINA BEA FAIR      77  66  69 W7        30.10R
ST AUGUSTINE   SUNNY     76  74  93 W5        30.13S

STATION/POSITION SKY/WX   TEMP    WIND        PRES    WAVE   SWELL
                          AIR SEA DIR/SP/G            HT/PER HT/PER
                          (F)     (DEG/KT/KT) (MB)    (FT/S) (FT/S)
SHELL POINT                79     260/  7/ 10   N/A
KEATON BEACH               83     260/ 12/ 13 1020.2R
CEDAR KEY                  84     280/  7/  9 1020.7R
FERNANDINA                 73 81  240/  3/  8 1018.7R
30.7N   81.3W                 77                N/A     2/ 8
MAYPORT                    76 80  250/  6/ 10 1019.7R
31.4N   80.9W              75 79  250/ 16/ 17 1018.5R   3/ 4   2/ 8
ST AUGUSTINE               77 73  250/  5/  8 1020.9R

$$
FLZ040-043>046-052-053-057-058-063-144-011300-
INTERIOR CENTRAL FLORIDA

CITY           SKY/WX    TMP DP  RH WIND       PRES   REMARKS
OCALA          MOSUNNY   75  72  88 S5        30.14S
THE VILLAGES     N/A    N/A N/A N/A S3        30.05R
LEESBURG       SUNNY     79  75  87 S6        30.15S
SANFORD        SUNNY     80  73  79 SW7       30.15R
ORLANDO EXEC   SUNNY     80  76  87 SW8       30.15R
ORLANDO INTL   MOSUNNY   80  75  84 SW7       30.15S
KISSIMMEE      SUNNY     79  75  89 CALM      30.16R
WINTER HAVEN   SUNNY     80  74  81 S3        30.17R
LAKELAND       SUNNY     77  73  88 CALM      30.16S
BARTOW         SUNNY     75  75 100 CALM      30.17S
OKEECHOBEE     SUNNY     70  70 100 E3        30.17R

$$
FLZ041-047-054-059-064-141-147-011300-
EAST CENTRAL FLORIDA

CITY           SKY/WX    TMP DP  RH WIND       PRES   REMARKS
DAYTONA BEACH  MOSUNNY   77  72  84 SW5       30.14R
DELAND           N/A     77  73  88 SW5       30.15S
NEW SMYRNA BEA SUNNY     77  73  88 SW7       30.15R
JFK SPACE CTR  MOSUNNY   77  72  84 SW7       30.15R
TITUSVILLE     SUNNY     73  72  94 S6        30.16R
CAPE CANAVERAL MOSUNNY   78  72  83 SW6       30.15R
PATRICK AFB    SUNNY     77  70  79 SW8       30.16R
MELBOURNE      SUNNY     74  68  81 SW3       30.17R
VERO BEACH     SUNNY     78  69  73 S3        30.16S
FT PIERCE      MOSUNNY   76  71  85 CALM      30.16R
STUART         SUNNY    N/A N/A N/A CALM      30.17R

STATION/POSITION SKY/WX   TEMP    WIND        PRES    WAVE   SWELL
                          AIR SEA DIR/SP/G            HT/PER HT/PER
                          (F)     (DEG/KT/KT) (MB)    (FT/S) (FT/S)
28.5N   80.2W              77 80  230/ 12/ 14 1020.9R
28.9N   78.5W              82 84  220/ 14/ 16 1020.3R
TRIDENT PIER               76 77  200/  6/  6 1021.2R
27.5N   80.2W                 77                N/A     2/ 6

$$
FLZ050-056-061-142-242-148-248-149-249-151-251-155-255-
160-260-011300-
WEST CENTRAL FLORIDA

CITY           SKY/WX    TMP DP  RH WIND       PRES   REMARKS
CRYSTAL RIVER  FAIR      77  73  88 CALM      30.13S
INVERNESS      FAIR     N/A N/A N/A CALM      30.14S
BROOKSVILLE    SUNNY     77  75  93 SE5       30.15S
ZEPHYRHILLS    FAIR      72  72 100 CALM      30.15F
CLEARWATER     MOSUNNY   83  78  85 SE3       30.14S
TAMPA INTL     MOSUNNY   83  75  77 SE3       30.15S
TAMPA EXEC     SUNNY    N/A N/A N/A CALM      30.15S
PLANT CITY     SUNNY     81  77  89 S3        30.17S
MACDILL AFB    MOSUNNY   82  79  89 SE1       30.14S
PETER O KNIGHT SUNNY     84  77  79 CALM      30.15S
ST PETERSBURG  MOSUNNY   83  76  79 SE3       30.13R
SARASOTA       MOSUNNY   79  74  84 SE6       30.13S
VENICE         FAIR      81  75  83 SE7       30.16R

STATION/POSITION SKY/WX   TEMP    WIND        PRES    WAVE   SWELL
                          AIR SEA DIR/SP/G            HT/PER HT/PER
                          (F)     (DEG/KT/KT) (MB)    (FT/S) (FT/S)
CEDAR KEY                  84     280/  7/  9 1020.7R
28.5N   84.5W              84 85  270/  8/ 10 1020.1R   2/ 5   2/ 5
27.3N   84.2W                 86                N/A     2/ 5
CLEARWATER BEACH           84 87  230/  7/  8 1020.7R
MIDDLE TAMPA BAY           81     170/  7/  8 1020.8R
VENICE                     79 88   60/  2/  3 1020.4R

$$
FLZ066-069-070-075>078-162-262-165-265-011300-
SOUTHWEST FLORIDA AND KEYS

CITY           SKY/WX    TMP DP  RH WIND       PRES   REMARKS
PUNTA GORDA    PTSUNNY   77  74  90 E5        30.18R
FT MYERS       PTSUNNY   78  71  79 E3        30.16R
SOUTHWEST INTL PTSUNNY   77  69  76 E5        30.17R
NAPLES         CLOUDY    78  69  73 NE7       30.16R
MARCO ISLAND   SUNNY     75  66  73 E5        30.15R
MARATHON         N/A     84  74  71 SE7       30.12R
KEY WEST NAS   PTSUNNY   85  75  72 E15       30.12S
KEY WEST INTL  MOSUNNY   85  78  80 SE17      30.12S HX  96

STATION/POSITION SKY/WX   TEMP    WIND        PRES    WAVE   SWELL
                          AIR SEA DIR/SP/G            HT/PER HT/PER
                          (F)     (DEG/KT/KT) (MB)    (FT/S) (FT/S)
VENICE                     79 88   60/  2/  3 1020.4R
NAPLES                        89              1021.3R
26.0N   85.6W              83 85   70/  4/  4 1019.8R   2/ 9   2/ 9
DRY TORTUGAS               85     100/ 12/ 13 1019.6R
NW FL BAY                  85     100/ 12/ 15 1020.0
SAND KEY                   84     120/ 16/ 19 1019.9R
SOMBRERO KEY               83     120/ 15/ 16 1020.5R
LONG KEY                   84 88  130/ 14/ 16 1020.5F
MOLASSES REEF              83 85  120/ 14/ 15 1019.8S

$$
FLZ067-068-071>074-168-172>174-011300-
SOUTHEAST FLORIDA

CITY           SKY/WX    TMP DP  RH WIND       PRES   REMARKS
W PALM BEACH   PTSUNNY   83  74  74 SE9       30.16R
FT LAUDER-EXEC CLOUDY    79  71  76 CALM      30.15R
FT LAUDERDALE  CLOUDY    81  73  76 N3        30.15R
POMPANO BEACH  CLOUDY    80  71  74 CALM      30.15R
PEMBROKE PINES CLOUDY    80  71  74 N6        30.16R
OPA LOCKA      CLOUDY    81  73  76 N6        30.15R
MIAMI          CLOUDY    82  72  71 N6        30.15R
WEST KENDALL   CLOUDY    82  73  74 E6        30.14R
HOMESTEAD      CLOUDY    83  72  70 E5        30.12S

STATION/POSITION SKY/WX   TEMP    WIND        PRES    WAVE   SWELL
                          AIR SEA DIR/SP/G            HT/PER HT/PER
                          (F)     (DEG/KT/KT) (MB)    (FT/S) (FT/S)
PORT EVERGLADES            84      80/  4/  7 1020.5R
VIRGINIA KEY               84 86  140/ 10/ 12 1019.7R
LAKE WORTH                 82 84  110/  9/ 11 1020.5R
SETTLEMENT POINT           79     140/  6/  8 1021.8R

$$




USA.gov is the U.S. government's official web portal to all federal, state and local government web resources and services.